Tracking 19854 objects as of 22-Sep-2019
HD Live streaming from Space Station
objects crossing your sky now

OPS 8386


OPS 8386 is no longer on orbit


NORAD ID: 1377
Int'l Code: 1965-038A
Perigee: N/A
Apogee: N/A
Inclination: N/A
Period: N/A
Semi major axis: N/A
RCS: N/A
Launch date: May 20, 1965
Source: United States (US)
Launch site: AIR FORCE WESTERN TEST RANGE (AFWTR)
Decay date: 2012-03-09
aabbcc
Your satellite tracking list
Your tracking list is empty




NASA's NSSDC Master Catalog

Two Line Element Set (TLE):
1 01377U 65038A   12069.39085762  .22296756  29661-5  44766-3 0  9996
2 01377 098.0492 292.3787 0006769 276.2882 083.9589 16.46851053525758
Source of the keplerian elements: AFSPC